User: anonymous   Login
Location: Bridgewater Hill Observatory
(43.5992°N, 72.6989°W)
Time: 09:13:20
(UTC-04:00)
Language:

Cosmos 1452 Rocket - Orbit

View from above orbital plane
View from above orbital plane
View from above satellite
View from above satellite

Ground track
Ground track

The orbit data is extracted from the following two-line orbital elements,

1 13992U 83031B   15187.24361789  .00000136  00000-0  55959-4 0  9998
2 13992 074.0522 232.7992 0004696 017.3471 045.3535 14.35954708686616
Epoch (UTC): 06 July 2015 05:50:48
Eccentricity: 0.0004696
inclination: 74.0522°
perigee height: 768 km
apogee height: 775 km
right ascension of ascending node: 232.7992°
argument of perigee: 17.3471°
revolutions per day: 14.35954708
mean anomaly at epoch: 45.3535°
orbit number at epoch: 68661

The dashed part of the orbit path shows where the satellite is in the earth's shadow,  

DLR